This is the latest recevied weather packets stored in our database for station/object KF5JED-13. If no packets are shown the sender has not sent any weather packets the latest 10 day(s).
| Time | Temp. | Humidity | Pressure | Rain* | Wind** | Luminosity | Snow |
|---|---|---|---|---|---|---|---|
| 1777471637 | 8.89° C | 76% | 1020.8 hPa | 0 mm | - | 256 W/m² | - |
| 1777471334 | 8.89° C | 77% | 1020.8 hPa | 0 mm | - | 250 W/m² | - |
| 1777471030 | 8.33° C | 78% | 1020.7 hPa | 0 mm | - | 250 W/m² | - |
| 1777470727 | 8.33° C | 78% | 1020.7 hPa | 0 mm | - | 181 W/m² | - |
| 1777470423 | 8.33° C | 78% | 1020.6 hPa | 0 mm | - | 206 W/m² | - |
| 1777470120 | 8.33° C | 79% | 1020.6 hPa | 0 mm | - | 218 W/m² | - |
| 1777469816 | 7.78° C | 79% | 1020.5 hPa | 0 mm | - | 160 W/m² | - |
| 1777469512 | 7.78° C | 80% | 1020.6 hPa | 0 mm | - | 162 W/m² | - |
| 1777469207 | 7.78° C | 80% | 1020.4 hPa | 0 mm | - | 159 W/m² | - |
| 1777468901 | 7.78° C | 81% | 1020.2 hPa | 0 mm | - | 147 W/m² | - |
| 1777468598 | 7.22° C | 81% | 1020.1 hPa | 0 mm | - | 121 W/m² | - |
| 1777468295 | 7.22° C | 82% | 1020 hPa | 0 mm | - | 112 W/m² | - |
| 1777467991 | 6.67° C | 82% | 1020.4 hPa | 0 mm | - | 95 W/m² | - |
| 1777467687 | 6.67° C | 82% | 1020.1 hPa | 0 mm | - | 72 W/m² | - |
| 1777467382 | 6.67° C | 82% | 1020 hPa | 0 mm | - | 67 W/m² | - |
| 1777467078 | 6.67° C | 83% | 1020 hPa | 0 mm | - | 82 W/m² | - |
| 1777466770 | 6.67° C | 83% | 1019.9 hPa | 0 mm | - | 77 W/m² | - |
| 1777466468 | 6.67° C | 83% | 1019.8 hPa | 0 mm | - | 57 W/m² | - |
| 1777466164 | 6.11° C | 84% | 1019.8 hPa | 0 mm | - | 44 W/m² | - |
| 1777465860 | 6.11° C | 84% | 1019.6 hPa | 0 mm | - | 34 W/m² | - |
| 1777465556 | 6.11° C | 83% | 1019.7 hPa | 0 mm | - | 27 W/m² | - |
| 1777465250 | 6.11° C | 83% | 1019.6 hPa | 0 mm | - | 19 W/m² | - |
| 1777464946 | 6.11° C | 83% | 1019.4 hPa | 0 mm | - | 14 W/m² | - |
| 1777464641 | 6.11° C | 83% | 1019.5 hPa | 0 mm | - | 10 W/m² | - |
| 1777464337 | 6.67° C | 82% | 1019.6 hPa | 0 mm | - | 7 W/m² | - |
* Rain latest hour (hover to see other rain measurements)
** Current wind speed in m/s (hover to see current wind gust speed)